Flag Weather past 2 weeks in Chatham-Kent, Ontario, Canada

Now
28 °F

Chilly.


Feels Like: 18 °F
Forecast: N/A
Wind: 12 mph from Southwest

Location: Erieau

Current Time: Nov 28, 2014 at 6:30:29 PM

Latest Report: Nov 28, 2014 at 5:00 PM


Visibility: N/A

Pressure: 30.22 "Hg

Humidity: 66%

Dew point: 18 °F

Location of Chatham-KentLocation

Historic Weather in Chatham-Kent — Graph

°F

Chatham-Kent temperature yesterday

Maximum temperature yesterday: 34 °F (at 12:00 PM)
Minimum temperature yesterday: 27 °F (at 11:00 PM)
Average temperature yesterday: 31 °F

Past Weeks' High & Low Weather Summary

 TemperatureHumidityPressure
High51 °F (Nov 24, 6:00 AM)98% (Nov 17, 5:00 AM)30.49 "Hg (Nov 17, 5:00 AM)
Low15 °F (Nov 21, 6:00 AM)45% (Nov 14, 3:00 PM)29.13 "Hg (Nov 24, 4:00 AM)
Average32 °F75%30.03 "Hg
* Reported Nov 13 5:00 PM — Nov 28 5:00 PM, Chatham-Kent, Weather by CustomWeather, © 2014

Note: Actual official high and low records may vary slightly from our data, if they occured in-between our weather recording intervals... More about our weather records

Advertising

Chatham-Kent weather history for previous 24 hours

 ConditionsComfort  
Time TempWeatherWind HumidityBarometerVisibility
5:00 PM
Nov 28
28 °FChilly.12 mph66%30.22 "HgN/A
4:00 PM28 °FChilly.10 mph68%30.24 "HgN/A
3:00 PM27 °FChilly.12 mph66%30.25 "HgN/A
2:00 PM26 °FChilly.12 mph65%30.27 "HgN/A
1:00 PM25 °FCold.10 mph60%30.29 "HgN/A
12:00 PM24 °FCold.7 mph57%30.31 "HgN/A
11:00 AM23 °FCold.5 mph58%30.35 "HgN/A
10:00 AM22 °FCold.6 mph56%30.35 "HgN/A
9:00 AM21 °FCold.7 mph57%30.36 "HgN/A
8:00 AM21 °FCold.7 mph64%30.36 "HgN/A
7:00 AM21 °FCold.8 mph63%30.35 "HgN/A
6:00 AM21 °FCold.6 mph62%30.34 "HgN/A
5:00 AM22 °FCold.6 mph59%30.34 "HgN/A
4:00 AM22 °FCold.7 mph56%30.32 "HgN/A
3:00 AM23 °FCold.8 mph62%30.31 "HgN/A
2:00 AM24 °FCold.6 mph65%30.29 "HgN/A
1:00 AM25 °FCold.7 mph70%30.28 "HgN/A
12:00 AM27 °FChilly.7 mph65%30.27 "HgN/A
11:00 PM
Nov 27
27 °FChilly.6 mph68%30.27 "HgN/A
10:00 PM28 °FChilly.6 mph63%30.26 "HgN/A
9:00 PM28 °FChilly.9 mph64%30.25 "HgN/A
8:00 PM29 °FChilly.9 mph68%30.23 "HgN/A
7:00 PM30 °FChilly.7 mph79%30.22 "HgN/A
6:00 PM32 °FChilly.7 mph74%30.19 "HgN/A
Weather by CustomWeather, © 2014

See weather overviewHow to use our weather pages